Location: Dodgeville, WI 53533, USA
(43.0344°N, 90.0900°W)
Time: 13:59:48
(UTC-06:00)

X-37B - Visible Passes

Search period start: 19 January 2022 00:00
Search period end: 29 January 2022 00:00
Orbit: 334 x 337 km, 45.0° (Epoch: 11 January)

Date Brightness Start Highest point End Pass type
(mag) Time Alt. Az. Time Alt. Az. Time Alt. Az.
25 Jan 2.5 18:35:03 10° S 18:36:23 16° SSE 18:36:23 16° SSE visible
26 Jan 2.0 18:54:30 10° SW 18:56:12 27° SSW 18:56:12 27° SSW visible
27 Jan 2.5 17:40:30 10° S 17:42:21 16° SE 17:44:14 10° ESE visible
27 Jan 2.7 19:14:42 10° WSW 19:15:56 23° WSW 19:15:56 23° WSW visible
28 Jan 1.2 17:59:56 10° SW 18:02:35 36° SSE 18:04:24 17° E visible
28 Jan 3.7 19:35:11 10° W 19:35:38 14° W 19:35:38 14° W visible
